Waarnemingen

Advertentie
Mijn weer
Torup A, Zweden (2618): temperatuur & dauwpunt: 16.01.2018 11:00:00 - 22.01.2018 11:00:00 (CET)Torup A, Zweden (2618): windsnelheid & windstoten: 16.01.2018 11:00:00 - 22.01.2018 11:00:00 (CET)Torup A, Zweden (2618): windrichting: 16.01.2018 11:00:00 - 22.01.2018 11:00:00 (CET)Torup A, Zweden (2618): luchtdruk: 16.01.2018 11:00:00 - 22.01.2018 11:00:00 (CET)Torup A, Zweden (2618): zicht: 16.01.2018 11:00:00 - 22.01.2018 11:00:00 (CET)Torup A, Zweden (2618): neerslag: 16.01.2018 11:00:00 - 22.01.2018 11:00:00 (CET)
Datum & Tijd tt [°C] td [°C] ff [km/u] ff [kn] fx [km/u] fx [kn] dd ppp [hPa] vv [km] rr [mm]
22.01.2018 11:00:00 - - - - - - - - - -
22.01.2018 10:00:00 -1,2 -2,2 7 4 16 9 OZO 1012,9 9 0,0
22.01.2018 09:00:00 -1,5 -2,2 6 3 11 6 O 1013,0 9 0,0
22.01.2018 08:00:00 -1,6 -2,2 3 2 8 5 ZO 1013,0 8 0,0
22.01.2018 07:00:00 -1,7 -2,1 5 3 8 5 O 1012,9 4,8 0,0
22.01.2018 06:00:00 -1,7 -2,1 4 2 8 5 O 1013,2 6 0,0
22.01.2018 05:00:00 -1,7 -2,4 4 2 8 4 O 1013,7 9 0,0
22.01.2018 04:00:00 -1,5 -2,3 3 2 8 4 O 1014,0 9 0,0
22.01.2018 03:00:00 -1,7 -2,4 4 2 14 8 ONO 1014,6 6 0,0
22.01.2018 02:00:00 -1,6 -2,3 4 2 14 8 O 1015,1 8 0,0
22.01.2018 01:00:00 -1,5 -2,3 7 4 12 7 ZO 1015,7 12 0,0
22.01.2018 00:00:00 -1,4 -2,2 4 2 9 5 ZZO 1015,9 12 0,0
21.01.2018 23:00:00 -1,7 -2,0 2 1 9 5 NO 1016,1 8 0,0
21.01.2018 22:00:00 -1,6 -2,2 3 2 10 6 ZZO 1016,3 9 0,0
21.01.2018 21:00:00 -1,5 -2,1 5 3 10 6 OZO 1016,2 15 0,0
21.01.2018 20:00:00 -1,2 -1,8 4 2 10 6 ZZO 1016,4 15 0,0
21.01.2018 19:00:00 -1,0 -1,6 4 2 10 6 Z 1016,4 9 0,0
21.01.2018 18:00:00 -0,8 -1,2 5 3 9 5 ZZO 1016,4 7 0,0
21.01.2018 17:00:00 -0,7 -1,5 4 2 4 2 ZO 1016,5 12 0,0
21.01.2018 16:00:00 -0,5 -1,8 2 1 9 5 NNO 1016,3 13 0,0
21.01.2018 15:00:00 -0,4 -2,0 3 2 11 6 O 1015,8 11 0,0
21.01.2018 14:00:00 -0,4 -1,7 6 3 13 7 O 1015,3 12 0,0
21.01.2018 13:00:00 -0,3 -1,9 6 3 13 7 O 1014,9 12 0,0
21.01.2018 12:00:00 -0,7 -1,5 6 4 11 6 O 1014,5 10 0,0
21.01.2018 11:00:00 -1,0 -1,6 4 2 7 4 NO 1014,0 10 0,0
21.01.2018 10:00:00 -1,2 -1,8 4 2 9 5 NO 1013,2 10 0,0
21.01.2018 09:00:00 -1,3 -1,9 3 2 14 8 NO 1012,4 10 0,0
21.01.2018 08:00:00 -1,0 -1,6 5 3 15 8 ONO 1011,6 11 0,0
21.01.2018 07:00:00 -0,8 -1,4 10 5 15 8 ONO 1010,8 13 0,0
21.01.2018 06:00:00 -0,5 -0,9 9 5 14 8 NO 1010,1 9 0,0
21.01.2018 05:00:00 -0,4 -0,8 5 3 11 6 ONO 1009,3 12 0,0
21.01.2018 04:00:00 -0,4 -0,7 6 3 12 6 O 1008,5 10 0,0
21.01.2018 03:00:00 -0,4 -0,7 6 3 13 7 O 1007,9 9 0,0
21.01.2018 02:00:00 -0,4 -0,7 7 4 13 7 ONO 1007,1 10 0,0
21.01.2018 01:00:00 -0,3 -0,6 8 4 13 7 ONO 1006,4 10 0,0
21.01.2018 00:00:00 -0,3 -0,6 6 3 11 6 ONO 1005,8 11 0,0
20.01.2018 23:00:00 -0,4 -0,5 5 3 10 5 ONO 1005,4 11 0,0
20.01.2018 22:00:00 -0,5 -0,6 4 2 10 6 O 1005,0 7 0,0
20.01.2018 21:00:00 -0,5 -0,8 6 4 10 6 O 1004,6 15 0,0
20.01.2018 20:00:00 -0,5 -0,8 5 3 9 5 ONO 1004,2 13 0,0
20.01.2018 19:00:00 -0,5 -0,8 6 3 14 8 O 1004,1 11 0,0
20.01.2018 18:00:00 -0,5 -0,8 5 3 14 8 O 1003,7 11 0,0
20.01.2018 17:00:00 -0,4 -0,7 8 4 13 7 O 1003,5 14 0,0
20.01.2018 16:00:00 -0,3 -0,6 5 3 13 7 O 1003,4 10 0,0
20.01.2018 15:00:00 -0,3 -0,6 8 4 15 8 O 1003,3 12 0,1
20.01.2018 14:00:00 -0,3 -0,7 9 5 16 9 O 1003,3 3,8 0,0
20.01.2018 13:00:00 -0,2 -0,8 7 4 16 9 O 1003,5 15 0,0
20.01.2018 12:00:00 -0,5 -0,9 8 5 16 9 O 1003,9 7 0,0
20.01.2018 11:00:00 -0,7 -1,1 7 4 13 7 O 1004,4 11 0,0
20.01.2018 10:00:00 -1,2 -1,5 6 3 14 8 O 1004,4 11 0,0
20.01.2018 09:00:00 -1,4 -1,5 6 3 14 8 O 1004,2 6 0,5
20.01.2018 08:00:00 -1,6 -1,9 5 3 14 7 O 1004,0 7 0,2
20.01.2018 07:00:00 -1,7 -2,0 7 4 14 7 O 1003,8 8 0,0
20.01.2018 06:00:00 -1,8 -1,9 7 4 14 7 OZO 1004,1 7 0,0
20.01.2018 05:00:00 -2,0 -2,3 6 3 14 7 O 1004,1 6 0,0
20.01.2018 04:00:00 -2,1 -2,4 7 4 16 9 O 1004,2 8 0,0
20.01.2018 03:00:00 -2,3 -2,6 8 5 16 9 O 1004,6 6 0,0
20.01.2018 02:00:00 -2,5 -2,8 6 3 14 7 O 1004,6 2,7 0,5
20.01.2018 01:00:00 -2,6 -3,1 8 4 14 8 O 1004,8 8 0,0
20.01.2018 00:00:00 -2,9 -3,3 8 5 19 10 O 1004,7 9 0,0
19.01.2018 23:00:00 -3,3 -3,6 5 3 19 10 O 1005,0 9 0,0
19.01.2018 22:00:00 -3,4 -3,8 7 4 13 7 O 1005,1 13 0,0
19.01.2018 21:00:00 -3,2 -3,6 8 4 13 7 O 1004,8 12 0,0
19.01.2018 20:00:00 -2,9 -3,3 6 4 10 5 O 1004,5 11 0,0
19.01.2018 19:00:00 -2,9 -3,4 4 2 9 5 O 1004,3 10 0,0
19.01.2018 18:00:00 -3,0 -3,5 4 2 8 5 O 1004,2 12 0,0
19.01.2018 17:00:00 -3,1 -3,5 6 3 8 5 O 1004,0 10 0,0
19.01.2018 16:00:00 -2,5 -3,0 4 2 5 3 O 1003,8 11 0,0
19.01.2018 15:00:00 -2,4 -3,0 3 2 5 3 NO 1003,4 11 0,0
19.01.2018 14:00:00 -3,2 -3,9 3 1 6 3 NNO 1003,0 12 0,0
19.01.2018 13:00:00 -2,7 -4,6 3 1 6 3 O 1003,1 13 0,0
19.01.2018 12:00:00 -3,9 -5,6 0 0 5 3 N 1003,1 12 0,0
19.01.2018 11:00:00 -5,1 -6,6 2 1 9 5 ONO 1002,7 12 0,0
19.01.2018 10:00:00 -4,6 -4,9 0 0 9 5 N 1002,1 13 0,0
19.01.2018 09:00:00 -7,3 -8,0 3 2 6 3 ONO 1001,5 0,7 0,0
19.01.2018 08:00:00 -6,4 -6,9 2 1 6 3 O 1000,8 8 0,0
19.01.2018 07:00:00 -5,7 -6,1 4 2 6 3 N 1000,0 13 0,0
19.01.2018 06:00:00 -5,7 -6,2 4 2 6 4 NNO 999,7 13 0,0
19.01.2018 05:00:00 -5,5 -6,0 5 3 9 5 ONO 998,8 15 0,0
19.01.2018 04:00:00 -4,3 -4,7 4 2 9 5 ZO 998,5 14 0,0
19.01.2018 03:00:00 -3,3 -3,7 0 0 6 3 N 998,0 11 0,0
19.01.2018 02:00:00 -2,9 -3,6 0 0 8 4 N 997,4 13 0,0
19.01.2018 01:00:00 -2,0 -2,4 3 2 10 6 NNW 996,7 13 0,0
19.01.2018 00:00:00 -1,6 -2,2 4 2 10 6 NNW 996,3 14 0,0
18.01.2018 23:00:00 -1,7 -2,1 5 3 11 6 WNW 996,0 13 0,0
18.01.2018 22:00:00 -1,2 -2,0 5 3 12 7 N 995,3 10 0,0
18.01.2018 21:00:00 -1,1 -1,9 5 3 12 7 N 994,6 12 0,0
18.01.2018 20:00:00 -1,2 -1,9 5 3 12 6 NNO 993,8 11 0,0
18.01.2018 19:00:00 -1,5 -1,9 5 3 14 7 NNO 993,0 9 0,0
18.01.2018 18:00:00 -0,9 -1,3 7 4 16 9 NO 992,2 8 0,0
18.01.2018 17:00:00 -0,6 -0,9 9 5 16 9 ONO 991,5 7 0,0
18.01.2018 16:00:00 -0,5 -0,8 8 5 16 9 ONO 991,0 2,3 0,0
18.01.2018 15:00:00 -0,3 -0,9 9 5 18 10 ONO 990,5 10 0,0
18.01.2018 14:00:00 -0,3 -0,7 6 3 18 10 ONO 990,2 9 0,0
18.01.2018 13:00:00 -0,3 -0,6 7 4 18 10 O 990,3 9 0,1
18.01.2018 12:00:00 -0,4 -0,7 9 5 21 11 O 990,6 9 0,0
18.01.2018 11:00:00 -0,4 -0,7 9 5 21 11 O 990,9 13 0,0
18.01.2018 10:00:00 -0,7 -0,8 8 4 16 9 O 991,2 7 0,0
18.01.2018 09:00:00 -0,7 -0,8 9 5 16 9 OZO 991,9 10 0,0
18.01.2018 08:00:00 -0,6 -0,7 4 2 15 8 ZO 992,2 7 0,0
18.01.2018 07:00:00 -0,6 -0,7 5 3 11 6 OZO 992,4 0,8 0,1
18.01.2018 06:00:00 -0,7 -0,8 5 3 13 7 ZZO 992,7 3,9 0,0
18.01.2018 05:00:00 -1,1 -1,2 5 3 13 7 ZZO 993,0 0,2 0,0
18.01.2018 04:00:00 -0,8 -0,9 7 4 11 6 Z 993,1 0,9 0,0
18.01.2018 03:00:00 -0,6 -0,7 6 3 10 5 Z 993,4 4,2 0,1
18.01.2018 02:00:00 -0,7 -0,8 5 3 11 6 Z 993,2 7 0,1
18.01.2018 01:00:00 -0,5 -0,6 5 3 11 6 Z 993,1 2,6 0,1
18.01.2018 00:00:00 -0,3 -0,4 5 3 12 6 ZZW 993,0 4,2 0,0
17.01.2018 23:00:00 -0,1 -0,2 4 2 12 6 Z 992,6 1,3 0,3
17.01.2018 22:00:00 -0,2 -0,3 3 2 9 5 ZZW 992,3 6 0,1
17.01.2018 21:00:00 -0,3 -0,4 5 3 13 7 ZZO 991,7 3,0 0,5
17.01.2018 20:00:00 -0,2 -0,5 3 1 14 7 Z 991,3 2,8 0,0
17.01.2018 19:00:00 -0,3 -0,4 4 2 14 7 ZW 991,0 7 0,0
17.01.2018 18:00:00 -0,5 -0,6 8 4 13 7 ZZW 990,3 9 0,0
17.01.2018 17:00:00 -0,1 -0,2 6 4 13 7 ZZW 989,8 8 0,1
17.01.2018 16:00:00 0,2 -0,1 6 3 11 6 W 989,3 2,8 0,1
17.01.2018 15:00:00 0,4 0,0 6 4 17 9 ZW 988,7 14 0,0
17.01.2018 14:00:00 1,1 0,5 7 4 17 9 ZZW 987,9 12 0,0
17.01.2018 13:00:00 1,4 1,1 5 3 11 6 Z 987,6 12 0,0
17.01.2018 12:00:00 0,7 0,4 4 2 11 6 Z 987,3 11 0,0
17.01.2018 11:00:00 0,5 0,4 5 3 13 7 ZZO 986,7 0,9 0,0
17.01.2018 10:00:00 0,4 0,3 5 3 13 7 Z 986,1 6 0,0
17.01.2018 09:00:00 0,1 0,0 4 2 11 6 Z 985,7 2,9 0,1
17.01.2018 08:00:00 0,1 0,0 4 2 11 6 Z 985,2 1,7 0,1
17.01.2018 07:00:00 0,4 0,3 6 4 11 6 W 984,4 10 0,0
17.01.2018 06:00:00 0,1 0,0 4 2 9 5 ZZO 984,2 1,4 0,0
17.01.2018 05:00:00 0,4 0,3 5 3 10 5 ZW 983,9 9 0,0
17.01.2018 04:00:00 0,4 0,3 4 2 13 7 ZZW 983,8 8 0,0
17.01.2018 03:00:00 0,4 0,3 5 3 17 9 ZW 983,7 7 0,0
17.01.2018 02:00:00 0,4 0,3 6 3 17 9 WZW 983,5 14 0,0
17.01.2018 01:00:00 0,3 0,2 6 3 13 7 ZW 983,3 11 0,4
17.01.2018 00:00:00 0,2 0,1 5 3 14 7 Z 983,3 3,5 0,8
16.01.2018 23:00:00 0,6 0,5 6 3 14 7 ZZO 983,1 1,4 0,1
16.01.2018 22:00:00 0,7 0,6 5 3 14 7 ZZO 982,9 2,1 0,0
16.01.2018 21:00:00 0,7 0,6 5 3 14 8 ZO 983,1 4,7 0,0
16.01.2018 20:00:00 0,9 0,8 8 4 16 9 ZZO 983,0 4,4 0,0
16.01.2018 19:00:00 1,1 1,0 5 3 18 10 ZO 982,9 4,2 0,1
16.01.2018 18:00:00 1,3 1,2 9 5 19 11 Z 982,8 7 0,1
16.01.2018 17:00:00 1,2 1,1 8 4 22 12 Z 982,9 6 0,4
16.01.2018 16:00:00 1,2 1,1 11 6 22 12 ZZO 982,8 3,8 0,6
16.01.2018 15:00:00 1,3 1,2 8 4 22 12 ZZO 982,6 6 1,1
16.01.2018 14:00:00 1,2 1,1 9 5 24 13 Z 982,5 2,8 1,2
16.01.2018 13:00:00 1,7 1,6 11 6 26 14 Z 982,6 3,6 0,6
16.01.2018 12:00:00 1,6 1,5 10 6 29 16 Z 982,8 4,7 -
16.01.2018 11:00:00 1,2 1,1 13 7 29 16 Z 982,7 6 0,3

tt = temperatuur
td = dauwpunt
ff = windsnelheid
fx = windstoten
dd = windrichting
ppp = luchtdruk
vv = zicht
rr = neerslag

Weerstations in de omgeving